TimeMST,TemperatureF,Dew PointF,Humidity,Sea Level PressureIn,VisibilityMPH,Wind Direction,Wind SpeedMPH,Gust SpeedMPH,PrecipitationIn,Events,Conditions,WindDirDegrees,DateUTC
12:53 AM,30.0,10.9,45,30.18,10.0,SSW,12.7,-,N/A,,Scattered Clouds,200,2011-11-17 07:53:00
1:53 AM,27.0,10.9,51,30.18,10.0,SSE,3.5,-,N/A,,Scattered Clouds,160,2011-11-17 08:53:00
2:53 AM,26.1,10.9,53,30.17,10.0,South,6.9,-,N/A,,Scattered Clouds,190,2011-11-17 09:53:00
3:53 AM,25.0,10.0,53,30.16,10.0,SSW,9.2,-,N/A,,Scattered Clouds,210,2011-11-17 10:53:00
4:53 AM,27.0,8.1,45,30.17,10.0,South,9.2,-,N/A,,Scattered Clouds,190,2011-11-17 11:53:00
5:53 AM,26.1,8.1,47,30.16,10.0,South,13.8,-,N/A,,Partly Cloudy,180,2011-11-17 12:53:00
6:53 AM,32.0,6.8,35,30.03,10.0,SSW,17.3,-,N/A,,Scattered Clouds,200,2011-11-17 13:53:00
7:53 AM,37.0,5.0,26,30.09,10.0,South,18.4,26.5,N/A,,Scattered Clouds,190,2011-11-17 14:53:00
8:53 AM,46.0,3.9,18,30.01,10.0,SSW,13.8,-,N/A,,Scattered Clouds,210,2011-11-17 15:53:00
9:53 AM,51.8,3.2,14,29.96,10.0,SSW,16.1,-,N/A,,Scattered Clouds,200,2011-11-17 16:53:00
10:53 AM,55.9,5.0,13,29.88,10.0,SW,12.7,-,N/A,,Scattered Clouds,220,2011-11-17 17:53:00
11:41 AM,57.2,5.0,12,29.90,10.0,West,5.8,-,N/A,,Scattered Clouds,260,2011-11-17 18:41:00
11:53 AM,57.0,5.0,12,29.83,10.0,Calm,Calm,-,N/A,,Scattered Clouds,0,2011-11-17 18:53:00
12:53 PM,57.0,7.0,14,29.80,10.0,West,11.5,16.1,N/A,,Mostly Cloudy,280,2011-11-17 19:53:00
12:58 PM,57.2,6.8,13,29.85,10.0,West,10.4,-,N/A,,Mostly Cloudy,260,2011-11-17 19:58:00
1:53 PM,57.9,10.9,16,29.79,10.0,WNW,20.7,27.6,N/A,,Mostly Cloudy,290,2011-11-17 20:53:00
2:53 PM,53.1,10.9,19,29.80,10.0,North,5.8,-,N/A,,Mostly Cloudy,360,2011-11-17 21:53:00
4:53 PM,46.9,12.0,24,29.81,10.0,SE,5.8,-,N/A,,Mostly Cloudy,140,2011-11-17 23:53:00
5:53 PM,39.9,12.0,32,29.83,10.0,ESE,4.6,-,N/A,,Mostly Cloudy,120,2011-11-18 00:53:00
6:53 PM,37.9,14.0,38,29.81,10.0,SSE,13.8,-,N/A,,Mostly Cloudy,160,2011-11-18 01:53:00
7:53 PM,39.9,14.0,35,29.76,10.0,South,11.5,-,N/A,,Scattered Clouds,190,2011-11-18 02:53:00
8:53 PM,39.9,10.9,31,29.72,10.0,SSE,9.2,-,N/A,,Scattered Clouds,160,2011-11-18 03:53:00
9:53 PM,43.0,10.0,26,29.66,10.0,SSW,5.8,-,N/A,,Scattered Clouds,210,2011-11-18 04:53:00
10:53 PM,36.0,10.0,34,29.67,10.0,SSW,4.6,-,N/A,,Scattered Clouds,210,2011-11-18 05:53:00
11:53 PM,33.1,10.9,40,29.65,10.0,SSE,11.5,-,N/A,,Scattered Clouds,160,2011-11-18 06:53:00